User: anonymous   Login
Location: Albany
(35.0000°S, 118.0000°E)
Time: 08:21:25
(UTC-04:00)
Language:

Cosmos 2227 Rocket - Orbit

View from above orbital plane
View from above orbital plane
View from above satellite
View from above satellite

Ground track
Ground track

The orbit data is extracted from the following two-line orbital elements,

1 22285U 92093B   16209.33324452 -.00000277  00000-0 -11867-3 0  9990
2 22285  71.0211 173.7373 0006674 266.1162  93.9198 14.14998158216582
Epoch (UTC): 27 July 2016 07:59:52
Eccentricity: 0.0006674
inclination: 71.0211°
perigee height: 837 km
apogee height: 847 km
right ascension of ascending node: 173.7373°
argument of perigee: 266.1162°
revolutions per day: 14.14998158
mean anomaly at epoch: 93.9198°
orbit number at epoch: 21658

The dashed part of the orbit path shows where the satellite is in the earth's shadow,  

DLR